[[{"header":{"parameterUnit":"m.s-1","parameterCategory":1,"la1":30.2991,"la2":30.254,"lo1":-89.0895,"lo2":-89.0444,"dy":0.0017,"dx":0.0017,"nx":28,"ny":28,"refTime":"2024-07-20T21:00:00:Z","depth":0,"parameterNumber":2,"parameterNumberName":"U-component_of_WINDS"},"data":[0,0,0,0,0,0,0,0,0,0,0,0,0,0,0,0,0,0,0,0,0,0,0,0,0,0,0,0,0,0,0,0,0,0,0,0,0,0,0,0,0,0,0,0,0,0,0,0,0,0,0,0,0,0,0,0,0,0,0.4982,0.4983,0,0.5039,0.5039,0.504,0.5083,0.5083,0.5083,0.5084,0.5142,0.5144,0.5145,0,0,0,0,0,0,0,0,0,0,0,0,0,0.491,0.4912,0.4982,0.4983,0.4984,0.5039,0.5039,0.504,0.5083,0.5083,0.5084,0.5084,0.5142,0.5143,0.5145,0,0,0,0,0,0,0,0,0,0,0,0,0,0.4952,0.4912,0.4982,0.5011,0.5015,0.5039,0.5039,0.504,0.5083,0.5083,0.5084,0.5084,0.5142,0.5143,0.5145,0.5145,0,0,0.5151,0.5151,0,0,0,0,0,0,0,0,0.4949,0.4954,0.5006,0.5009,0.5013,0.5054,0.5036,0.5075,0.5082,0.5057,0.5084,0.5084,0.5113,0.5117,0.5126,0.5147,0.515,0.5151,0.5152,0.5153,0.5153,0,0,0,0,0,0,0,0.4946,0.4952,0.5005,0.5007,0.5011,0.5022,0.5028,0.5043,0.5081,0.5059,0.5062,0.5068,0.5115,0.5124,0.5128,0.5151,0.5151,0.5152,0.5153,0.5154,0.5173,0.5173,0,0,0,0,0,0,0.4939,0.4949,0.5003,0.5006,0.4982,0.5022,0.503,0.504,0.5081,0.5087,0.5068,0.507,0.5121,0.5126,0.513,0.5132,0.5153,0.5154,0.5155,0.5174,0.5173,0.5173,0,0,0,0,0,0,0.4937,0.4943,0.5001,0.4979,0.4987,0.5023,0.5035,0.5041,0.5051,0.5087,0.5094,0.5071,0.5122,0.5128,0.514,0.5135,0.5155,0.5157,0.5175,0.5174,0.5173,0.5136,0,0,0,0,0,0,0.4935,0.4943,0.4943,0.4978,0.4988,0.501,0.5034,0.5042,0.5054,0.5058,0.5092,0.5098,0.5123,0.5138,0.5142,0.5137,0.5158,0.5175,0.5174,0.5173,0.5138,0.5134,0.513,0,0,0,0,0,0.4932,0.4931,0.4943,0.4949,0.4989,0.501,0.5015,0.5043,0.5053,0.5054,0.5077,0.5097,0.5134,0.5138,0.5144,0.514,0.5176,0.5174,0.5173,0.5139,0.5134,0.513,0,0,0,0,0,0,0.4894,0.4936,0.495,0.496,0.4981,0.5017,0.5019,0.5037,0.5056,0.5058,0.5092,0.5099,0.5108,0.5125,0.5129,0.5141,0.5157,0.5157,0.513,0.5125,0.5122,0.5118,0.516,0,0,0,0,0,0.4887,0.49,0.4936,0.4941,0.4951,0.4982,0.4992,0.5012,0.5035,0.5044,0.5068,0.509,0.5107,0.5117,0.5134,0.514,0.5148,0.5139,0.5136,0.5133,0.5132,0.5136,0.5132,0.5168,0.5168,0.5168,0,0,0.4872,0.4897,0.4903,0.4934,0.4952,0.4965,0.499,0.5002,0.5012,0.5046,0.506,0.5078,0.5104,0.5113,0.5119,0.5128,0.5124,0.5131,0.5128,0.513,0.5134,0.5131,0.5128,0.5167,0.5168,0.5168,0,0,0.4852,0.4872,0.4878,0.4895,0.4923,0.4944,0.4945,0.4978,0.4991,0.5005,0.503,0.5042,0.507,0.5088,0.51,0.5084,0.5103,0.5088,0.507,0.5073,0.507,0.5068,0.5062,0.5059,0.5088,0.5088,0.5088,0,0.483,0.485,0.4879,0.4889,0.4902,0.4932,0.4938,0.4954,0.4986,0.4994,0.5003,0.5038,0.5058,0.5071,0.5067,0.5076,0.5078,0.5085,0.5068,0.5066,0.5064,0.5059,0.5057,0.5086,0.5086,0.5086,0.5086,0,0.4822,0.4835,0.4837,0.4866,0.4879,0.4887,0.4916,0.4925,0.4943,0.4962,0.4975,0.5,0.5022,0.5027,0.5044,0.5042,0.5047,0.5062,0.5079,0.5058,0.5054,0.5052,0.5083,0.5084,0.5084,0.5085,0,0,0.4782,0.4824,0.4825,0.4838,0.4869,0.488,0.4889,0.491,0.4917,0.4937,0.4946,0.4967,0.4981,0.4995,0.5015,0.5017,0.5002,0.5032,0.5033,0.5025,0.5001,0.499,0.4987,0.5014,0.5014,0.5014,0.4998,0,0.4766,0.4784,0.4809,0.4819,0.4831,0.4859,0.4867,0.4887,0.4905,0.4918,0.4938,0.4952,0.4969,0.4978,0.4981,0.5003,0.4998,0.5004,0.5023,0.5023,0.5016,0.4985,0.4973,0.4958,0.4997,0.4997,0.4996,0,0.4752,0.4769,0.478,0.4809,0.4815,0.4822,0.4842,0.4854,0.4877,0.489,0.4904,0.4925,0.4936,0.495,0.4965,0.4969,0.4978,0.4989,0.4989,0.4993,0.5009,0.4987,0.4953,0.4951,0.4994,0.4994,0.4994,0,0.4721,0.4747,0.4757,0.4767,0.4801,0.4805,0.482,0.4843,0.4853,0.4871,0.4878,0.4897,0.4908,0.4922,0.4947,0.4955,0.4958,0.4976,0.4969,0.4969,0.497,0.497,0.4937,0.4974,0.4974,0.4974,0.4974,0,0.4702,0.4707,0.4743,0.4749,0.4756,0.4783,0.4789,0.4806,0.4826,0.4836,0.4861,0.4869,0.4901,0.4913,0.4933,0.4942,0.4946,0.4957,0.4962,0.4955,0.4953,0.4962,0.4964,0.4974,0.4974,0.4974,0.4974,0,0.4669,0.4693,0.4705,0.4736,0.4744,0.4747,0.4774,0.478,0.4799,0.481,0.4815,0.4844,0.486,0.4885,0.4908,0.4921,0.4926,0.4935,0.4919,0.4922,0.4914,0.4915,0.4886,0.4884,0.4922,0.4922,0.4921,0,0.4655,0.466,0.4691,0.4698,0.4712,0.4724,0.4735,0.4762,0.4772,0.4797,0.48,0.4817,0.4832,0.4855,0.4879,0.4896,0.4905,0.4894,0.4908,0.49,0.4905,0.4905,0.4905,0.4891,0.489,0.489,0.489,0,0.4629,0.464,0.4654,0.4672,0.4684,0.4699,0.4716,0.4721,0.4752,0.4762,0.4777,0.4788,0.4811,0.4827,0.4848,0.4863,0.4881,0.4885,0.4884,0.4877,0.4868,0.4873,0.491,0.4886,0.4886,0.4886,0.4887,0.4887,0.4606,0.461,0.4632,0.4647,0.4662,0.4677,0.4684,0.4703,0.4716,0.4736,0.4751,0.4765,0.4787,0.4816,0.4829,0.4841,0.4849,0.4848,0.4848,0.4848,0.4845,0.4865,0.4844,0.4844,0.4845,0.4845,0.4845,0,0.458,0.4595,0.4608,0.463,0.4641,0.4657,0.4676,0.4684,0.4696,0.4714,0.4728,0.4745,0.476,0.4784,0.4802,0.4806,0.4815,0.481,0.481,0.4813,0.4836,0.4835,0.4802,0.4802,0.4802,0.4802,0.4802,0.4802,0.4568,0.4577,0.4591,0.4607,0.4622,0.4636,0.4645,0.4659,0.4673,0.4691,0.4704,0.4719,0.4739,0.4758,0.4772,0.4779,0.4784,0.4776,0.4786,0.4807,0.4811,0.4815,0.4814,0.4777,0.4777,0.4761,0.4761,0.4761]},{"header":{"parameterUnit":"m.s-1","parameterCategory":1,"la1":30.2991,"la2":30.254,"lo1":-89.0895,"lo2":-89.0444,"dy":0.0017,"dx":0.0017,"nx":28,"ny":28,"refTime":"2024-07-20T21:00:00:Z","depth":0,"parameterNumber":3,"parameterNumberName":"V-component_of_WINDS"},"data":[0,0,0,0,0,0,0,0,0,0,0,0,0,0,0,0,0,0,0,0,0,0,0,0,0,0,0,0,0,0,0,0,0,0,0,0,0,0,0,0,0,0,0,0,0,0,0,0,0,0,0,0,0,0,0,0,0,0,2.3589,2.3589,0,2.3619,2.3619,2.3619,2.364,2.364,2.364,2.3641,2.367,2.3671,2.3672,0,0,0,0,0,0,0,0,0,0,0,0,0,2.3548,2.3549,2.3589,2.3589,2.3589,2.3619,2.3619,2.3619,2.364,2.364,2.3641,2.3641,2.367,2.3671,2.3672,0,0,0,0,0,0,0,0,0,0,0,0,0,2.357,2.3549,2.3589,2.3603,2.3605,2.3618,2.3619,2.3619,2.364,2.364,2.3641,2.3641,2.367,2.3671,2.3672,2.3673,0,0,2.3675,2.3675,0,0,0,0,0,0,0,0,2.3569,2.3572,2.3601,2.3602,2.3604,2.3626,2.3615,2.3637,2.364,2.3627,2.3641,2.3641,2.3655,2.3657,2.3663,2.3674,2.3675,2.3675,2.3675,2.3676,2.3676,0,0,0,0,0,0,0,2.3568,2.3571,2.36,2.3601,2.3603,2.3608,2.3611,2.362,2.3639,2.3628,2.3629,2.3633,2.3656,2.3662,2.3663,2.3676,2.3675,2.3676,2.3676,2.3677,2.3689,2.3688,0,0,0,0,0,0,2.3564,2.3569,2.36,2.3601,2.3587,2.3608,2.3612,2.3619,2.3639,2.3643,2.3633,2.3634,2.366,2.3662,2.3665,2.3667,2.3676,2.3677,2.3677,2.3689,2.3689,2.3688,0,0,0,0,0,0,2.3563,2.3566,2.3598,2.3586,2.359,2.3609,2.3616,2.3619,2.3624,2.3643,2.3646,2.3634,2.366,2.3663,2.367,2.3668,2.3677,2.3678,2.3689,2.3689,2.3688,2.3671,0,0,0,0,0,0,2.3562,2.3566,2.3567,2.3586,2.3591,2.3604,2.3616,2.362,2.3626,2.3628,2.3645,2.3649,2.3661,2.3669,2.3671,2.3669,2.3679,2.369,2.3689,2.3689,2.3672,2.367,2.3668,0,0,0,0,0,2.356,2.3561,2.3567,2.357,2.3593,2.3604,2.3607,2.3621,2.3626,2.3627,2.3638,2.3648,2.3668,2.3669,2.3672,2.3671,2.369,2.3689,2.3689,2.3672,2.367,2.3668,0,0,0,0,0,0,2.3541,2.3564,2.3571,2.3578,2.3589,2.3608,2.3609,2.3618,2.3628,2.3629,2.3646,2.365,2.3655,2.3663,2.3665,2.3672,2.368,2.368,2.3666,2.3664,2.3663,2.3661,2.368,0,0,0,0,0,2.3538,2.3546,2.3565,2.3569,2.3574,2.3591,2.3596,2.3606,2.3618,2.3623,2.3635,2.3646,2.3655,2.366,2.3669,2.3673,2.3676,2.3673,2.3671,2.367,2.3669,2.3671,2.367,2.3686,2.3686,2.3686,0,0,2.3531,2.3544,2.3548,2.3565,2.3575,2.3582,2.3594,2.3602,2.3607,2.3624,2.3631,2.364,2.3654,2.3659,2.3662,2.3666,2.3665,2.3669,2.3668,2.3668,2.367,2.3669,2.3667,2.3686,2.3686,2.3686,0,0,2.3523,2.3534,2.3538,2.3547,2.3562,2.3573,2.3574,2.3591,2.3598,2.3605,2.3618,2.3624,2.3639,2.3647,2.3654,2.3647,2.3656,2.3649,2.364,2.3642,2.3641,2.3639,2.3637,2.3635,2.3649,2.3649,2.3649,0,2.3512,2.3524,2.3539,2.3545,2.3552,2.3567,2.3571,2.358,2.3596,2.36,2.3605,2.3623,2.3633,2.364,2.3638,2.3643,2.3644,2.3648,2.364,2.3639,2.3638,2.3635,2.3634,2.3648,2.3648,2.3648,2.3648,0,2.3511,2.3518,2.352,2.3536,2.3543,2.3548,2.3563,2.3568,2.3576,2.3586,2.3593,2.3606,2.3617,2.3619,2.3628,2.3627,2.363,2.3637,2.3645,2.3635,2.3633,2.3632,2.3647,2.3647,2.3647,2.3647,0,0,2.3492,2.3515,2.3515,2.3522,2.3539,2.3545,2.355,2.3561,2.3565,2.3575,2.358,2.3591,2.3598,2.3605,2.3614,2.3616,2.3609,2.3623,2.3623,2.3619,2.3608,2.3603,2.3601,2.3614,2.3614,2.3614,2.3607,0,2.3486,2.3497,2.351,2.3516,2.3523,2.3537,2.3541,2.3551,2.356,2.3567,2.3577,2.3584,2.3592,2.3597,2.3599,2.3609,2.3607,2.361,2.3618,2.3618,2.3615,2.36,2.3595,2.3587,2.3606,2.3606,2.3606,0,2.3481,2.349,2.3497,2.3512,2.3516,2.352,2.353,2.3537,2.3548,2.3554,2.3562,2.3572,2.3577,2.3584,2.3591,2.3593,2.3597,2.3603,2.3603,2.3604,2.3612,2.3601,2.3585,2.3584,2.3605,2.3605,2.3605,0,2.3466,2.3481,2.3487,2.3492,2.351,2.3512,2.3519,2.3531,2.3537,2.3546,2.3549,2.3559,2.3564,2.357,2.3582,2.3586,2.3588,2.3596,2.3593,2.3593,2.3593,2.3593,2.3578,2.3596,2.3596,2.3596,2.3596,0,2.3458,2.3462,2.348,2.3484,2.3488,2.3502,2.3505,2.3514,2.3524,2.3529,2.3541,2.3545,2.3561,2.3567,2.3576,2.358,2.3582,2.3587,2.359,2.3586,2.3585,2.3589,2.359,2.3595,2.3595,2.3596,2.3596,0,2.3443,2.3456,2.3463,2.3479,2.3483,2.3485,2.3498,2.3502,2.3511,2.3517,2.3519,2.3533,2.3541,2.3553,2.3564,2.357,2.3573,2.3577,2.3569,2.357,2.3567,2.3567,2.3553,2.3552,2.357,2.357,2.357,0,2.3437,2.344,2.3456,2.346,2.3467,2.3474,2.348,2.3493,2.3498,2.351,2.3512,2.352,2.3528,2.3539,2.355,2.3558,2.3562,2.3557,2.3564,2.356,2.3562,2.3562,2.3562,2.3556,2.3555,2.3555,2.3555,0,2.3425,2.3431,2.3439,2.3448,2.3454,2.3463,2.3471,2.3474,2.3489,2.3494,2.3501,2.3507,2.3518,2.3526,2.3535,2.3542,2.3551,2.3553,2.3552,2.3549,2.3544,2.3546,2.3565,2.3553,2.3553,2.3553,2.3553,2.3554,2.3415,2.3418,2.3429,2.3437,2.3445,2.3452,2.3456,2.3465,2.3472,2.3482,2.3489,2.3496,2.3506,2.352,2.3526,2.3531,2.3535,2.3535,2.3535,2.3535,2.3533,2.3543,2.3533,2.3533,2.3533,2.3533,2.3533,0,2.3404,2.3411,2.3418,2.343,2.3435,2.3443,2.3452,2.3457,2.3463,2.3471,2.3478,2.3486,2.3494,2.3505,2.3513,2.3515,2.3519,2.3516,2.3516,2.3518,2.3529,2.3529,2.3513,2.3513,2.3513,2.3513,2.3513,2.3513,2.3399,2.3404,2.3411,2.3419,2.3427,2.3434,2.3439,2.3445,2.3452,2.3461,2.3467,2.3474,2.3483,2.3492,2.3499,2.3502,2.3504,2.35,2.3504,2.3515,2.3517,2.3519,2.3518,2.3501,2.35,2.3492,2.3492,2.3492]}]]